Terug naar catalogus

STARLINK-36163

ActiefCommunicatieVLEO
NORAD 67008·PAYLOAD·🇺🇸 United States

Gelanceerd Dec 10, 2025 vanaf Vandenberg Space Force Base

Loading…

Volgende Passages (komende 24 uur)

TLE

VersSource: CelesTrak SupGP

Epoch: Sep 14, 2026, 22:48 UTC

1 67008C 25293F   26257.95048611 -.00012264  00000+0 -10280-2 0  2574
2 67008  70.0017 337.3152 0003587 268.8879 177.7548 14.98326134    14

Volg STARLINK-36163 in realtime met AllMySat

Download on the App Store